SL-8 R/B

Satellite information

Favourite Embed

Satellite Type and Status

ROCKET BODYIN ORBIT

Key statistics

Satellite SL-8 R/B at a glance.

Uptime

14925

Days in orbit

Revolutions

≈ 13.8

Per day

Orbit

LEO

Low Earth Orbit

Inclination

82.9

Latest

Satellite identification and parameters

Extended collection of information and parameters for SL-8 R/B.

Object identification

Identified? True

Debris? False

Object name: SL-8 R/B

International designator: 1985-011B

Object number (NORAD): 15506

Object ID (CCSDS): 15506

Country: COMMONWEALTH OF INDEPENDENT STATES (CIS)

Current information (Y/N): Y

RCS size: LARGE

Orbital parameters

Period: 104.613 minutes

Inclination: 82.9181 deg

SMA: 7354.472 km

Apoapsis: 1003.386 km

Periapsis: 949.287 km

RAAN: 152.7817 deg

Eccentricy: 0.00367798

Argument of periapsis: 24.9818 deg

Mean anomaly: 148.7268 deg

Mean motion: 13.76497841 rev/day

Mean motion (dot): 0.0000004 rev/day2

B* drag term: 0.000025192726 1/REarth

Two-line elements (TLE)

Creation date: Dec. 12, 2025, 10:14 a.m.

Reference frame: TEME

Reference center: EARTH

Epoch: Dec. 12, 2025, 4:51 a.m. UTC

TLE line 0: 0 SL-8 R/B

TLE line 1: 1 15506U 85011B 25346.20226949 .00000040 00000-0 25193-4 0 9994

TLE line 2: 2 15506 82.9181 152.7817 0036780 24.9818 148.7268 13.76497841 51546

Live tracking on map

Real-time ground track for satellite SL-8 R/B.

In-orbit conjunctions

A list of the most updated potential collisions computed for object SL-8 R/B.

Target Orbit TCA Probability of collision Miss distance Type
DELTA 1 DEB SSO 2025-12-06 01:59:12 0.0001635519 84.0 (m) DEBRIS
COSMOS 2251 DEB LEO 2024-11-16 10:23:43 0.0001294502 472.0 (m) DEBRIS
DELTA 1 DEB SSO 2024-07-27 07:38:28 0.0001194504 861.0 (m) DEBRIS

Associated space launch

Navigation satellite providing location information for the Tsiklon-B navigation system

SL-8 R/B was lifted into orbit during the mission ‘Kosmos-3M | Parus 48’, on board a Kosmos-3M space rocket.

The launch took place on Feb. 1, 1985, 7:36 p.m. from 132/2.

For more information about the launch, click the button.

Launch to space Kosmos-3M | Parus 48
Kosmos-3M | Parus 48

Agency: N/A

Status: Launch Successful

Launch date: Feb. 1, 1985, 7:36 p.m. UTC

Rocket: Kosmos-3M

Launch pad: 132/2

Location: Plesetsk Cosmodrome, Russian Federation

...

Latest news about this satellite

There are no fresh news available about this satellite. Check back as we update our databases every day.


Newsletter sign-up

Weekly statistics, charts and insights to help you stay on top of the space industry.